ENGINEERING TRACK TESTING
Weather & Rail Temperature Monitoring

Weather station MANSFIELD

Mansfield Impact Detector Site (Mansfield MA)

Measurement History

Home Current History Weekly graphs

,

to download data from the start of , to the end of ,

Conditions for past 24 hours (since 09/01/2026 01:31 AM)

Time Track 1 N rail Track 1 S rail Track 2 N rail Track 2 S rail Outside Air
Temperature
Solar
Radiation
Max. Wind Humidity Air Pressure Rain
SpeedDir
09/02/2026 01:15 AM 52 °F 61 °F 60 °F 62 °F 60.6 °F 0 watt/m2 0 mph --- 96 % 30.255 in Hg 0 in
09/02/2026 01:00 AM 52 °F 61 °F 60 °F 62 °F 60.9 °F 0 watt/m2 0 mph --- 96 % 30.256 in Hg 0 in
09/02/2026 12:45 AM 52 °F 62 °F 60 °F 62 °F 61.1 °F 0 watt/m2 6 mph NE 96 % 30.254 in Hg 0 in
09/02/2026 12:30 AM 53 °F 62 °F 60 °F 62 °F 61.2 °F 0 watt/m2 0 mph --- 96 % 30.252 in Hg 0 in
09/02/2026 12:15 AM 53 °F 62 °F 60 °F 62 °F 61.3 °F 0 watt/m2 0 mph --- 96 % 30.246 in Hg 0 in
09/02/2026 12:00 AM 53 °F 62 °F 61 °F 63 °F 61.4 °F 0 watt/m2 8 mph SE 96 % 30.23 in Hg 0 in
09/01/2026 11:45 PM 53 °F 62 °F 61 °F 63 °F 61.5 °F 0 watt/m2 11 mph NNE 96 % 30.232 in Hg 0 in
09/01/2026 11:30 PM 53 °F 62 °F 61 °F 63 °F 61.5 °F 0 watt/m2 0 mph --- 96 % 30.232 in Hg 0 in
09/01/2026 11:15 PM 53 °F 62 °F 61 °F 63 °F 61.5 °F 0 watt/m2 7 mph SSE 96 % 30.232 in Hg 0 in
09/01/2026 11:00 PM 53 °F 62 °F 61 °F 63 °F 61.5 °F 0 watt/m2 2 mph SE 95 % 30.229 in Hg 0 in
09/01/2026 10:45 PM 53 °F 62 °F 61 °F 63 °F 61.8 °F 0 watt/m2 4 mph SE 96 % 30.226 in Hg 0 in
09/01/2026 10:30 PM 53 °F 63 °F 61 °F 63 °F 61.8 °F 0 watt/m2 4 mph SE 96 % 30.228 in Hg 0 in
09/01/2026 10:15 PM 53 °F 63 °F 61 °F 63 °F 61.7 °F 0 watt/m2 0 mph --- 96 % 30.224 in Hg 0 in
09/01/2026 10:00 PM 53 °F 63 °F 61 °F 63 °F 61.7 °F 0 watt/m2 8 mph SE 95 % 30.226 in Hg 0 in
09/01/2026 09:45 PM 53 °F 63 °F 61 °F 63 °F 61.7 °F 0 watt/m2 0 mph --- 95 % 30.229 in Hg 0 in
09/01/2026 09:30 PM 54 °F 63 °F 61 °F 63 °F 61.8 °F 0 watt/m2 10 mph N 95 % 30.224 in Hg 0 in
09/01/2026 09:15 PM 54 °F 63 °F 61 °F 64 °F 62 °F 0 watt/m2 7 mph E 95 % 30.222 in Hg 0 in
09/01/2026 09:00 PM 54 °F 63 °F 62 °F 64 °F 62.2 °F 0 watt/m2 0 mph --- 95 % 30.224 in Hg 0 in
09/01/2026 08:45 PM 54 °F 64 °F 62 °F 64 °F 62.3 °F 0 watt/m2 3 mph NE 95 % 30.219 in Hg 0 in
09/01/2026 08:30 PM 55 °F 64 °F 62 °F 64 °F 62.3 °F 0 watt/m2 4 mph N 95 % 30.216 in Hg 0 in
09/01/2026 08:15 PM 55 °F 64 °F 62 °F 64 °F 62.4 °F 0 watt/m2 9 mph N 95 % 30.217 in Hg 0 in
09/01/2026 08:00 PM 55 °F 64 °F 62 °F 64 °F 62.5 °F 0 watt/m2 3 mph NNW 95 % 30.218 in Hg 0 in
09/01/2026 07:45 PM 55 °F 64 °F 62 °F 64 °F 62.5 °F 0 watt/m2 1 mph NNW 95 % 30.208 in Hg 0 in
09/01/2026 07:30 PM 55 °F 65 °F 62 °F 65 °F 62.6 °F 0 watt/m2 4 mph NNW 95 % 30.208 in Hg 0 in
09/01/2026 07:15 PM 55 °F 65 °F 63 °F 65 °F 62.5 °F 4 watt/m2 6 mph NNW 94 % 30.21 in Hg 0 in
09/01/2026 07:00 PM 55 °F 65 °F 63 °F 65 °F 62.6 °F 13 watt/m2 0 mph --- 94 % 30.207 in Hg 0 in
09/01/2026 06:45 PM 56 °F 65 °F 63 °F 65 °F 62.7 °F 28 watt/m2 5 mph NE 94 % 30.206 in Hg 0 in
09/01/2026 06:30 PM 56 °F 65 °F 63 °F 65 °F 62.6 °F 42 watt/m2 7 mph E 94 % 30.207 in Hg 0 in
09/01/2026 06:15 PM 56 °F 65 °F 63 °F 65 °F 62.5 °F 40 watt/m2 0 mph --- 94 % 30.207 in Hg 0 in
09/01/2026 06:00 PM 56 °F 65 °F 63 °F 65 °F 62.2 °F 42 watt/m2 9 mph N 94 % 30.211 in Hg 0 in
09/01/2026 05:45 PM 56 °F 65 °F 63 °F 65 °F 62.2 °F 59 watt/m2 5 mph N 93 % 30.211 in Hg 0 in
09/01/2026 05:30 PM 56 °F 65 °F 64 °F 65 °F 62 °F 74 watt/m2 3 mph N 93 % 30.207 in Hg 0.01 in
09/01/2026 05:15 PM 56 °F 65 °F 64 °F 65 °F 62.3 °F 62 watt/m2 4 mph N 93 % 30.208 in Hg 0 in
09/01/2026 05:00 PM 56 °F 66 °F 64 °F 66 °F 62.7 °F 81 watt/m2 4 mph N 93 % 30.206 in Hg 0 in
09/01/2026 04:45 PM 56 °F 66 °F 64 °F 66 °F 62.7 °F 92 watt/m2 2 mph N 93 % 30.198 in Hg 0 in
09/01/2026 04:30 PM 57 °F 66 °F 64 °F 66 °F 62.7 °F 73 watt/m2 4 mph N 93 % 30.197 in Hg 0 in
09/01/2026 04:15 PM 57 °F 66 °F 64 °F 66 °F 62.9 °F 87 watt/m2 6 mph N 93 % 30.198 in Hg 0 in
09/01/2026 04:00 PM 57 °F 66 °F 64 °F 66 °F 62.9 °F 94 watt/m2 1 mph NNW 93 % 30.195 in Hg 0 in
09/01/2026 03:45 PM 57 °F 66 °F 65 °F 66 °F 62.9 °F 99 watt/m2 15 mph N 92 % 30.195 in Hg 0 in
09/01/2026 03:30 PM 57 °F 66 °F 65 °F 67 °F 63.2 °F 81 watt/m2 4 mph N 92 % 30.191 in Hg 0 in
09/01/2026 03:15 PM 57 °F 67 °F 65 °F 67 °F 63.6 °F 76 watt/m2 11 mph NNW 91 % 30.193 in Hg 0 in
09/01/2026 03:00 PM 58 °F 67 °F 66 °F 68 °F 63.9 °F 84 watt/m2 6 mph ESE 91 % 30.185 in Hg 0 in
09/01/2026 02:45 PM 58 °F 68 °F 66 °F 68 °F 64.3 °F 78 watt/m2 4 mph NNW 91 % 30.186 in Hg 0 in
09/01/2026 02:30 PM 59 °F 68 °F 67 °F 69 °F 64.8 °F 76 watt/m2 2 mph NNW 91 % 30.187 in Hg 0 in
09/01/2026 02:15 PM 59 °F 69 °F 67 °F 69 °F 65.2 °F 96 watt/m2 9 mph NNW 91 % 30.188 in Hg 0 in
09/01/2026 02:00 PM 60 °F 70 °F 68 °F 70 °F 65.4 °F 85 watt/m2 4 mph NE 90 % 30.179 in Hg 0 in
09/01/2026 01:45 PM 61 °F 71 °F 69 °F 71 °F 66.1 °F 57 watt/m2 11 mph N 86 % 30.166 in Hg 0 in
09/01/2026 01:30 PM 63 °F 72 °F 71 °F 73 °F 67.1 °F 53 watt/m2 5 mph SE 83 % 30.186 in Hg 0 in
09/01/2026 01:15 PM 65 °F 74 °F 72 °F 74 °F 68 °F 109 watt/m2 9 mph NNE 80 % 30.18 in Hg 0 in
09/01/2026 01:00 PM 65 °F 75 °F 72 °F 74 °F 68.6 °F 111 watt/m2 9 mph S 82 % 30.176 in Hg 0 in
09/01/2026 12:45 PM 66 °F 75 °F 73 °F 75 °F 69.5 °F 121 watt/m2 10 mph S 82 % 30.176 in Hg 0 in
09/01/2026 12:30 PM 66 °F 75 °F 74 °F 75 °F 70.3 °F 147 watt/m2 8 mph N 84 % 30.171 in Hg 0 in
09/01/2026 12:15 PM 66 °F 76 °F 74 °F 75 °F 70.7 °F 186 watt/m2 11 mph N 83 % 30.167 in Hg 0 in
09/01/2026 12:00 PM 67 °F 76 °F 74 °F 76 °F 71.1 °F 252 watt/m2 6 mph SSE 82 % 30.168 in Hg 0 in
09/01/2026 11:45 AM 66 °F 76 °F 74 °F 75 °F 71.1 °F 287 watt/m2 10 mph S 84 % 30.171 in Hg 0.01 in
09/01/2026 11:30 AM 66 °F 75 °F 73 °F 75 °F 71.5 °F 265 watt/m2 7 mph N 89 % 30.171 in Hg 0 in
09/01/2026 11:15 AM 65 °F 75 °F 73 °F 74 °F 71.6 °F 278 watt/m2 8 mph SE 91 % 30.177 in Hg 0 in
09/01/2026 11:00 AM 65 °F 74 °F 72 °F 74 °F 71.2 °F 327 watt/m2 12 mph NNW 92 % 30.174 in Hg 0 in
09/01/2026 10:45 AM 63 °F 73 °F 71 °F 72 °F 70.1 °F 463 watt/m2 9 mph SSE 93 % 30.179 in Hg 0 in
09/01/2026 10:30 AM 61 °F 71 °F 70 °F 71 °F 69.5 °F 194 watt/m2 2 mph ENE 94 % 30.18 in Hg 0 in
09/01/2026 10:15 AM 61 °F 70 °F 69 °F 71 °F 68.8 °F 146 watt/m2 3 mph ENE 94 % 30.182 in Hg 0 in
09/01/2026 10:00 AM 60 °F 70 °F 68 °F 70 °F 68.4 °F 95 watt/m2 9 mph N 93 % 30.193 in Hg 0.01 in
09/01/2026 09:45 AM 60 °F 69 °F 68 °F 70 °F 68.4 °F 83 watt/m2 2 mph N 93 % 30.195 in Hg 0 in
09/01/2026 09:30 AM 59 °F 69 °F 68 °F 70 °F 68.2 °F 76 watt/m2 9 mph N 93 % 30.18 in Hg 0 in
09/01/2026 09:15 AM 59 °F 69 °F 68 °F 70 °F 68.1 °F 67 watt/m2 1 mph N 93 % 30.185 in Hg 0 in
09/01/2026 09:00 AM 59 °F 69 °F 67 °F 69 °F 67.8 °F 76 watt/m2 0 mph --- 92 % 30.188 in Hg 0 in
09/01/2026 08:45 AM 59 °F 69 °F 68 °F 69 °F 67.7 °F 46 watt/m2 12 mph NNW 92 % 30.187 in Hg 0 in
09/01/2026 08:30 AM 59 °F 69 °F 67 °F 69 °F 67.6 °F 29 watt/m2 1 mph NNE 92 % 30.182 in Hg 0 in
09/01/2026 08:15 AM 59 °F 69 °F 67 °F 69 °F 67.4 °F 22 watt/m2 7 mph NNE 92 % 30.181 in Hg 0 in
09/01/2026 08:00 AM 59 °F 69 °F 67 °F 69 °F 67.2 °F 30 watt/m2 0 mph --- 92 % 30.183 in Hg 0 in
09/01/2026 07:45 AM 59 °F 69 °F 67 °F 69 °F 67.2 °F 46 watt/m2 5 mph SE 92 % 30.181 in Hg 0 in
09/01/2026 07:30 AM 59 °F 68 °F 67 °F 69 °F 67 °F 36 watt/m2 9 mph N 92 % 30.172 in Hg 0 in
09/01/2026 07:15 AM 58 °F 68 °F 66 °F 69 °F 66.8 °F 42 watt/m2 4 mph ESE 93 % 30.176 in Hg 0 in
09/01/2026 07:00 AM 58 °F 68 °F 66 °F 68 °F 66.4 °F 20 watt/m2 14 mph N 92 % 30.173 in Hg 0 in
09/01/2026 06:45 AM 58 °F 68 °F 66 °F 68 °F 66.2 °F 8 watt/m2 2 mph N 92 % 30.174 in Hg 0 in
09/01/2026 06:30 AM 58 °F 67 °F 66 °F 68 °F 66.1 °F 0 watt/m2 1 mph N 92 % 30.168 in Hg 0 in
09/01/2026 06:15 AM 58 °F 67 °F 66 °F 68 °F 66.1 °F 0 watt/m2 0 mph --- 92 % 30.166 in Hg 0 in
09/01/2026 06:00 AM 58 °F 68 °F 66 °F 68 °F 66.2 °F 0 watt/m2 0 mph --- 91 % 30.161 in Hg 0 in
09/01/2026 05:45 AM 58 °F 68 °F 66 °F 68 °F 66.2 °F 0 watt/m2 8 mph N 92 % 30.167 in Hg 0 in
09/01/2026 05:30 AM 58 °F 68 °F 66 °F 68 °F 66.3 °F 0 watt/m2 0 mph --- 91 % 30.168 in Hg 0 in
09/01/2026 05:15 AM 58 °F 68 °F 66 °F 68 °F 66.4 °F 0 watt/m2 8 mph NNW 91 % 30.165 in Hg 0 in
09/01/2026 05:00 AM 58 °F 68 °F 66 °F 68 °F 66.6 °F 0 watt/m2 0 mph --- 91 % 30.165 in Hg 0 in
09/01/2026 04:45 AM 58 °F 68 °F 67 °F 69 °F 66.9 °F 0 watt/m2 1 mph NNW 90 % 30.166 in Hg 0 in
09/01/2026 04:30 AM 59 °F 69 °F 67 °F 69 °F 67 °F 0 watt/m2 0 mph --- 90 % 30.171 in Hg 0 in
09/01/2026 04:15 AM 59 °F 69 °F 67 °F 69 °F 67 °F 0 watt/m2 3 mph NNW 90 % 30.187 in Hg 0 in
09/01/2026 04:00 AM 59 °F 69 °F 67 °F 70 °F 67 °F 0 watt/m2 0 mph --- 89 % 30.19 in Hg 0 in
09/01/2026 03:45 AM 59 °F 69 °F 67 °F 70 °F 67.1 °F 0 watt/m2 0 mph --- 89 % 30.185 in Hg 0 in
09/01/2026 03:30 AM 59 °F 69 °F 68 °F 70 °F 67.1 °F 0 watt/m2 0 mph --- 89 % 30.184 in Hg 0 in
09/01/2026 03:15 AM 59 °F 69 °F 68 °F 70 °F 67.2 °F 0 watt/m2 0 mph --- 88 % 30.188 in Hg 0 in
09/01/2026 03:00 AM 60 °F 69 °F 68 °F 70 °F 67.3 °F 0 watt/m2 0 mph --- 88 % 30.188 in Hg 0 in
09/01/2026 02:45 AM 60 °F 69 °F 68 °F 70 °F 67.4 °F 0 watt/m2 0 mph --- 88 % 30.19 in Hg 0 in
09/01/2026 02:30 AM 60 °F 69 °F 68 °F 70 °F 67.5 °F 0 watt/m2 0 mph --- 87 % 30.196 in Hg 0 in
09/01/2026 02:15 AM 60 °F 70 °F 68 °F 70 °F 67.5 °F 0 watt/m2 0 mph --- 87 % 30.194 in Hg 0 in
09/01/2026 02:00 AM 60 °F 70 °F 68 °F 70 °F 67.6 °F 0 watt/m2 3 mph NNW 87 % 30.192 in Hg 0 in
09/01/2026 01:45 AM 60 °F 70 °F 68 °F 70 °F 67.7 °F 0 watt/m2 0 mph --- 87 % 30.192 in Hg 0 in

Alarms Station information Line AB Subdivision PROVIDENCE